TimeEDT,TemperatureF,Dew PointF,Humidity,Sea Level PressureIn,VisibilityMPH,Wind Direction,Wind SpeedMPH,Gust SpeedMPH,PrecipitationIn,Events,Conditions,WindDirDegrees,DateUTC
12:54 AM,37.9,32.0,79,30.29,10.0,WSW,6.9,-,N/A,,Clear,250,2013-10-26 04:54:00
1:54 AM,37.9,30.9,76,30.28,10.0,West,4.6,-,N/A,,Clear,260,2013-10-26 05:54:00
2:54 AM,36.0,30.0,79,30.27,10.0,Calm,Calm,-,N/A,,Clear,0,2013-10-26 06:54:00
3:54 AM,37.0,30.0,76,30.27,10.0,West,5.8,-,N/A,,Clear,260,2013-10-26 07:54:00
4:54 AM,36.0,30.0,79,30.26,10.0,WSW,3.5,-,N/A,,Clear,250,2013-10-26 08:54:00
5:54 AM,34.0,30.0,85,30.26,10.0,WSW,3.5,-,N/A,,Clear,250,2013-10-26 09:54:00
6:54 AM,34.0,30.0,85,30.26,10.0,SW,3.5,-,N/A,,Clear,230,2013-10-26 10:54:00
7:54 AM,33.1,30.9,92,30.26,10.0,Calm,Calm,-,N/A,,Clear,0,2013-10-26 11:54:00
8:54 AM,41.0,33.1,73,30.27,10.0,WSW,3.5,-,N/A,,Clear,250,2013-10-26 12:54:00
9:54 AM,45.0,34.0,65,30.25,10.0,SW,6.9,-,N/A,,Clear,230,2013-10-26 13:54:00
10:54 AM,51.1,32.0,48,30.23,10.0,SSW,8.1,-,N/A,,Clear,200,2013-10-26 14:54:00
11:54 AM,53.1,30.0,41,30.20,10.0,WSW,13.8,-,N/A,,Clear,240,2013-10-26 15:54:00
12:54 PM,54.0,27.0,35,30.17,10.0,SW,18.4,24.2,N/A,,Clear,220,2013-10-26 16:54:00
1:54 PM,54.0,30.0,40,30.13,10.0,SW,18.4,27.6,N/A,,Clear,220,2013-10-26 17:54:00
2:54 PM,55.9,32.0,40,30.09,10.0,SW,17.3,24.2,N/A,,Partly Cloudy,220,2013-10-26 18:54:00
3:54 PM,57.0,30.9,37,30.06,10.0,SSW,16.1,23.0,N/A,,Clear,210,2013-10-26 19:54:00
4:54 PM,55.9,37.9,51,30.04,10.0,SSW,12.7,23.0,N/A,,Partly Cloudy,210,2013-10-26 20:54:00
5:54 PM,54.0,33.1,45,30.01,10.0,SW,11.5,-,N/A,,Clear,220,2013-10-26 21:54:00
6:54 PM,51.1,34.0,52,30.00,10.0,SSW,9.2,-,N/A,,Clear,210,2013-10-26 22:54:00
7:54 PM,50.0,34.0,54,29.99,10.0,SSW,11.5,-,N/A,,Clear,200,2013-10-26 23:54:00
8:54 PM,48.9,34.0,56,29.99,10.0,SSW,6.9,-,N/A,,Clear,210,2013-10-27 00:54:00
9:54 PM,46.9,35.1,63,29.99,10.0,SSW,6.9,-,N/A,,Clear,200,2013-10-27 01:54:00
10:54 PM,46.0,35.1,66,29.98,10.0,SSW,6.9,-,N/A,,Scattered Clouds,210,2013-10-27 02:54:00
11:54 PM,48.9,36.0,61,29.95,10.0,SSW,5.8,-,N/A,,Overcast,200,2013-10-27 03:54:00